RYR459 LCPH-LGTS

Flight info

Callsign RYR459
Flight time N/A
Altitude 34000
Route GENOS1W GENOS DCT PEDER DCT EVENO UM601 RDS UL995 RIPLI UN137 SKP/N0368F240 L617 LEKPO LEKPO1P
Aircraft B38M/M-SDE1FGHILORVWXY/HB1

Departure

Time N/A
Airport Paphos International Airport (LCPH)

Arrival

Time 2026-05-04 11:16
Airport Thessaloniki Macedonia International Airport (LGTS)
Time Latitude Longitude Altitude Speed Heading
2026-05-04 10:56 39.33556 23.54137 19990 ft 362 kts 340°
2026-05-04 10:57 39.35899 23.53003 19630 ft 359 kts 341°
2026-05-04 10:57 39.38229 23.51875 19276 ft 356 kts 340°
2026-05-04 10:57 39.40537 23.50757 18909 ft 355 kts 340°
2026-05-04 10:57 39.42848 23.49640 18467 ft 355 kts 340°
2026-05-04 10:58 39.45117 23.48512 17965 ft 355 kts 338°
2026-05-04 10:58 39.47424 23.47242 17247 ft 361 kts 339°
2026-05-04 10:58 39.49729 23.45982 16828 ft 358 kts 339°
2026-05-04 10:58 39.52014 23.44739 16449 ft 354 kts 339°
2026-05-04 10:59 39.54251 23.43526 16081 ft 350 kts 339°
2026-05-04 10:59 39.56481 23.42316 15706 ft 346 kts 339°
2026-05-04 10:59 39.58694 23.41114 15346 ft 342 kts 339°
2026-05-04 10:59 39.60876 23.39929 14988 ft 338 kts 339°
2026-05-04 11:00 39.63034 23.38755 14627 ft 335 kts 339°
2026-05-04 11:01 39.76921 23.31186 12034 ft 314 kts 339°
2026-05-04 11:02 39.78924 23.30091 11687 ft 311 kts 339°
2026-05-04 11:02 39.80910 23.29005 11343 ft 308 kts 339°
2026-05-04 11:05 40.05673 23.15408 7592 ft 261 kts 339°
2026-05-04 11:06 40.07360 23.14477 7296 ft 264 kts 339°
2026-05-04 11:06 40.09058 23.13541 7025 ft 265 kts 339°
2026-05-04 11:06 40.10750 23.12607 6736 ft 264 kts 339°
2026-05-04 11:06 40.12437 23.11675 6440 ft 262 kts 339°
2026-05-04 11:08 40.23849 23.06019 4809 ft 230 kts 347°
2026-05-04 11:10 40.33335 23.03014 3839 ft 175 kts 347°
2026-05-04 11:12 40.41230 23.00510 2512 ft 147 kts 345°
2026-05-04 11:12 40.42220 23.00197 2178 ft 145 kts 346°
2026-05-04 11:12 40.43202 22.99887 1917 ft 145 kts 346°
2026-05-04 11:12 40.44198 22.99568 1643 ft 148 kts 346°
2026-05-04 11:13 40.45193 22.99257 1384 ft 146 kts 345°
2026-05-04 11:13 40.46165 22.98948 1187 ft 145 kts 345°
2026-05-04 11:13 40.47153 22.98629 947 ft 147 kts 345°
2026-05-04 11:13 40.48147 22.98306 726 ft 148 kts 343°
2026-05-04 11:14 40.48487 22.98196 661 ft 149 kts 344°
2026-05-04 11:14 40.50511 22.97563 204 ft 152 kts 345°
2026-05-04 11:16 40.52398 22.97304 31 ft 6 kts 69°
2026-05-04 11:16 40.52428 22.97352 31 ft 5 kts 44°
2026-05-04 11:16 40.52445 22.97374 31 ft 3 kts 44°
2026-05-04 11:17 40.52454 22.97385 31 ft 2 kts 44°
2026-05-04 11:17 40.52458 22.97391 31 ft 0 kts 44°
2026-05-04 11:24 40.52458 22.97390 31 ft 0 kts 44°